Time,TemperatureF,DewpointF,PressureIn,WindDirection,WindDirectionDegrees,WindSpeedMPH,WindSpeedGustMPH,Humidity,HourlyPrecipIn,Conditions,Clouds,dailyrainin,SolarRadiationWatts/m^2,SoftwareType,DateUTC
2013-05-23 00:12:00,77.0,70.0,30.06,ENE,60,6.0,11.0,78,0.00,,,0.19,0.000000,,2013-05-23 10:12:00,
2013-05-23 00:22:00,77.0,70.0,30.06,ENE,60,6.0,11.0,78,0.00,,,0.19,0.000000,,2013-05-23 10:22:00,
2013-05-23 00:32:00,77.0,70.0,30.06,ENE,60,6.0,11.0,78,0.00,,,0.19,0.000000,,2013-05-23 10:32:00,
2013-05-23 00:42:00,77.0,70.0,30.06,ENE,60,6.0,11.0,78,0.00,,,0.19,0.000000,,2013-05-23 10:42:00,
2013-05-23 00:52:00,77.0,70.0,30.06,ENE,60,6.0,11.0,78,0.00,,,0.19,0.000000,,2013-05-23 10:52:00,
2013-05-23 01:11:00,77.0,70.0,30.05,ENE,61,6.0,13.0,78,0.00,,,0.19,0.000000,,2013-05-23 11:11:00,
2013-05-23 01:21:00,77.0,70.0,30.05,ENE,61,6.0,13.0,78,0.00,,,0.19,0.000000,,2013-05-23 11:21:00,
2013-05-23 01:32:00,77.0,70.0,30.05,ENE,61,6.0,13.0,78,0.00,,,0.19,0.000000,,2013-05-23 11:32:00,
2013-05-23 01:41:00,77.0,70.0,30.05,ENE,61,6.0,13.0,78,0.00,,,0.19,0.000000,,2013-05-23 11:41:00,
2013-05-23 01:52:00,77.0,70.0,30.05,ENE,61,6.0,13.0,78,0.00,,,0.19,0.000000,,2013-05-23 11:52:00,
2013-05-23 02:11:00,76.0,68.0,30.03,ENE,58,7.0,10.0,77,0.00,,,0.19,0.000000,,2013-05-23 12:11:00,
2013-05-23 02:21:00,76.0,68.0,30.03,ENE,58,7.0,10.0,77,0.00,,,0.19,0.000000,,2013-05-23 12:21:00,
2013-05-23 02:32:00,76.0,68.0,30.03,ENE,58,7.0,10.0,77,0.00,,,0.19,0.000000,,2013-05-23 12:32:00,
2013-05-23 02:41:00,76.0,68.0,30.03,ENE,58,7.0,10.0,77,0.00,,,0.19,0.000000,,2013-05-23 12:41:00,
2013-05-23 02:51:00,76.0,68.0,30.03,ENE,58,7.0,10.0,77,0.00,,,0.19,0.000000,,2013-05-23 12:51:00,
2013-05-23 03:11:00,75.0,67.0,30.02,ENE,65,8.0,13.0,76,0.00,,,-99.99,0.000000,,2013-05-23 13:11:00,
2013-05-23 03:21:00,75.0,67.0,30.02,ENE,65,8.0,13.0,76,0.00,,,-99.99,0.000000,,2013-05-23 13:21:00,
2013-05-23 03:31:00,75.0,67.0,30.02,ENE,65,8.0,13.0,76,0.00,,,-99.99,0.000000,,2013-05-23 13:31:00,
2013-05-23 03:41:00,75.0,67.0,30.02,ENE,65,8.0,13.0,76,0.00,,,-99.99,0.000000,,2013-05-23 13:41:00,
2013-05-23 03:52:00,75.0,67.0,30.02,ENE,65,8.0,13.0,76,0.00,,,-99.99,0.000000,,2013-05-23 13:52:00,
2013-05-23 04:11:00,74.0,66.0,30.02,NE,37,6.0,12.0,77,0.00,,,0.19,0.000000,,2013-05-23 14:11:00,
2013-05-23 04:21:00,74.0,66.0,30.02,NE,37,6.0,12.0,77,0.00,,,0.19,0.000000,,2013-05-23 14:21:00,
2013-05-23 04:32:00,74.0,66.0,30.02,NE,37,6.0,12.0,77,0.00,,,0.19,0.000000,,2013-05-23 14:32:00,
2013-05-23 04:41:00,74.0,66.0,30.02,NE,37,6.0,12.0,77,0.00,,,0.19,0.000000,,2013-05-23 14:41:00,
2013-05-23 04:52:00,74.0,66.0,30.02,NE,37,6.0,12.0,77,0.00,,,0.19,0.000000,,2013-05-23 14:52:00,
2013-05-23 04:53:00,75.0,68.0,30.02,NNE,12,7.0,12.0,79,0.00,,,0.19,0.000000,,2013-05-23 14:53:00,
2013-05-23 05:11:00,75.0,68.0,30.02,NNE,12,7.0,12.0,79,0.00,,,0.19,0.000000,,2013-05-23 15:11:00,
2013-05-23 05:21:00,75.0,68.0,30.02,NNE,12,7.0,12.0,79,0.00,,,0.19,0.000000,,2013-05-23 15:21:00,
2013-05-23 05:32:00,75.0,68.0,30.02,NNE,12,7.0,12.0,79,0.00,,,0.19,0.000000,,2013-05-23 15:32:00,
2013-05-23 05:42:00,75.0,68.0,30.02,NNE,12,7.0,12.0,79,0.00,,,0.19,0.000000,,2013-05-23 15:42:00,
2013-05-23 06:12:00,75.0,68.0,30.03,North,1,6.0,9.0,80,0.00,,,0.19,0.000000,,2013-05-23 16:12:00,
2013-05-23 06:22:00,75.0,68.0,30.03,North,1,6.0,9.0,80,0.00,,,0.19,0.000000,,2013-05-23 16:22:00,
2013-05-23 06:33:00,75.0,68.0,30.03,North,1,6.0,9.0,80,0.00,,,0.19,0.000000,,2013-05-23 16:33:00,
2013-05-23 06:42:00,75.0,68.0,30.03,North,1,6.0,9.0,80,0.00,,,0.19,0.000000,,2013-05-23 16:42:00,
2013-05-23 06:52:00,75.0,68.0,30.03,North,1,6.0,9.0,80,0.00,,,0.19,0.000000,,2013-05-23 16:52:00,
2013-05-23 07:11:00,78.0,71.0,30.05,NNE,17,6.0,10.0,78,0.00,,,0.19,74.000000,,2013-05-23 17:11:00,
2013-05-23 07:22:00,78.0,71.0,30.05,NNE,17,6.0,10.0,78,0.00,,,0.19,74.000000,,2013-05-23 17:22:00,
2013-05-23 07:33:00,78.0,71.0,30.05,NNE,17,6.0,10.0,78,0.00,,,0.19,74.000000,,2013-05-23 17:33:00,
2013-05-23 07:42:00,78.0,71.0,30.05,NNE,17,6.0,10.0,78,0.00,,,0.19,74.000000,,2013-05-23 17:42:00,
2013-05-23 07:52:00,78.0,71.0,30.05,NNE,17,6.0,10.0,78,0.00,,,0.19,74.000000,,2013-05-23 17:52:00,
2013-05-23 08:11:00,80.0,67.0,30.07,NE,42,8.0,14.0,64,0.00,,,0.19,315.000000,,2013-05-23 18:11:00,
2013-05-23 08:21:00,80.0,67.0,30.07,NE,42,8.0,14.0,64,0.00,,,0.19,315.000000,,2013-05-23 18:21:00,
2013-05-23 08:32:00,80.0,67.0,30.07,NE,42,8.0,14.0,64,0.00,,,0.19,315.000000,,2013-05-23 18:32:00,
2013-05-23 08:42:00,80.0,67.0,30.07,NE,42,8.0,14.0,64,0.00,,,0.19,315.000000,,2013-05-23 18:42:00,
2013-05-23 08:51:00,80.0,67.0,30.07,NE,42,8.0,14.0,64,0.00,,,0.19,315.000000,,2013-05-23 18:51:00,
2013-05-23 09:11:00,83.0,69.0,30.07,NE,51,10.0,15.0,62,0.00,,,0.19,559.000000,,2013-05-23 19:11:00,
2013-05-23 09:21:00,83.0,69.0,30.07,NE,51,10.0,15.0,62,0.00,,,0.19,559.000000,,2013-05-23 19:21:00,
2013-05-23 09:31:00,83.0,69.0,30.07,NE,51,10.0,15.0,62,0.00,,,0.19,559.000000,,2013-05-23 19:31:00,
2013-05-23 09:41:00,83.0,69.0,30.07,NE,51,10.0,15.0,62,0.00,,,0.19,559.000000,,2013-05-23 19:41:00,
2013-05-23 09:52:00,83.0,69.0,30.07,NE,51,10.0,15.0,62,0.00,,,0.19,559.000000,,2013-05-23 19:52:00,
2013-05-23 10:11:00,82.0,69.0,30.07,ENE,68,12.0,21.0,65,0.00,,,0.19,657.000000,,2013-05-23 20:11:00,
2013-05-23 10:21:00,82.0,69.0,30.07,ENE,68,12.0,21.0,65,0.00,,,0.19,657.000000,,2013-05-23 20:21:00,
2013-05-23 10:32:00,82.0,69.0,30.07,ENE,68,12.0,21.0,65,0.00,,,0.19,657.000000,,2013-05-23 20:32:00,
2013-05-23 10:41:00,82.0,69.0,30.07,ENE,68,12.0,21.0,65,0.00,,,0.19,657.000000,,2013-05-23 20:41:00,
2013-05-23 10:51:00,82.0,69.0,30.07,ENE,68,12.0,21.0,65,0.00,,,0.19,657.000000,,2013-05-23 20:51:00,
2013-05-23 10:53:00,82.0,69.0,30.06,ENE,74,14.0,27.0,65,0.00,,,0.19,566.000000,,2013-05-23 20:53:00,
2013-05-23 11:11:00,82.0,69.0,30.06,ENE,74,14.0,27.0,65,0.00,,,0.19,566.000000,,2013-05-23 21:11:00,
2013-05-23 11:21:00,82.0,69.0,30.06,ENE,74,14.0,27.0,65,0.00,,,0.19,566.000000,,2013-05-23 21:21:00,
2013-05-23 11:32:00,82.0,69.0,30.06,ENE,74,14.0,27.0,65,0.00,,,0.19,566.000000,,2013-05-23 21:32:00,
2013-05-23 11:43:00,82.0,69.0,30.06,ENE,74,14.0,27.0,65,0.00,,,0.19,566.000000,,2013-05-23 21:43:00,
2013-05-23 12:12:00,85.0,70.0,30.04,East,79,16.0,27.0,62,0.00,,,-99.99,1074.000000,,2013-05-23 22:12:00,
2013-05-23 12:22:00,85.0,70.0,30.04,East,79,16.0,27.0,62,0.00,,,-99.99,1074.000000,,2013-05-23 22:22:00,
2013-05-23 12:33:00,85.0,70.0,30.04,East,79,16.0,27.0,62,0.00,,,-99.99,1074.000000,,2013-05-23 22:33:00,
2013-05-23 12:42:00,85.0,70.0,30.04,East,79,16.0,27.0,62,0.00,,,-99.99,1074.000000,,2013-05-23 22:42:00,
2013-05-23 12:52:00,85.0,70.0,30.04,East,79,16.0,27.0,62,0.00,,,-99.99,1074.000000,,2013-05-23 22:52:00,
2013-05-23 13:11:00,84.0,68.0,30.03,ENE,69,17.0,31.0,59,0.00,,,0.19,1204.000000,,2013-05-23 23:11:00,
2013-05-23 13:21:00,84.0,68.0,30.03,ENE,69,17.0,31.0,59,0.00,,,0.19,1204.000000,,2013-05-23 23:21:00,
2013-05-23 13:31:00,84.0,68.0,30.03,ENE,69,17.0,31.0,59,0.00,,,0.19,1204.000000,,2013-05-23 23:31:00,
2013-05-23 13:42:00,84.0,68.0,30.03,ENE,69,17.0,31.0,59,0.00,,,0.19,1204.000000,,2013-05-23 23:42:00,
2013-05-23 13:52:00,84.0,68.0,30.03,ENE,69,17.0,31.0,59,0.00,,,0.19,1204.000000,,2013-05-23 23:52:00,
2013-05-23 14:12:00,84.0,69.0,30.01,ENE,70,19.0,33.0,61,0.00,,,0.19,1111.000000,,2013-05-24 00:12:00,
2013-05-23 14:21:00,84.0,69.0,30.01,ENE,70,19.0,33.0,61,0.00,,,0.19,1111.000000,,2013-05-24 00:21:00,
2013-05-23 14:31:00,84.0,69.0,30.01,ENE,70,19.0,33.0,61,0.00,,,0.19,1111.000000,,2013-05-24 00:31:00,
2013-05-23 14:42:00,84.0,69.0,30.01,ENE,70,19.0,33.0,61,0.00,,,0.19,1111.000000,,2013-05-24 00:42:00,
2013-05-23 14:52:00,84.0,69.0,30.01,ENE,70,19.0,33.0,61,0.00,,,0.19,1111.000000,,2013-05-24 00:52:00,
2013-05-23 15:12:00,80.0,68.0,30.00,ENE,62,16.0,31.0,67,0.00,,,0.19,566.000000,,2013-05-24 01:12:00,
2013-05-23 15:22:00,80.0,68.0,30.00,ENE,62,16.0,31.0,67,0.00,,,0.19,566.000000,,2013-05-24 01:22:00,
2013-05-23 15:32:00,80.0,68.0,30.00,ENE,62,16.0,31.0,67,0.00,,,0.19,566.000000,,2013-05-24 01:32:00,
2013-05-23 15:41:00,80.0,68.0,30.00,ENE,62,16.0,31.0,67,0.00,,,0.19,566.000000,,2013-05-24 01:41:00,
2013-05-23 15:52:00,80.0,68.0,30.00,ENE,62,16.0,31.0,67,0.00,,,0.19,566.000000,,2013-05-24 01:52:00,
2013-05-23 16:11:00,85.0,70.0,29.99,ENE,72,16.0,29.0,61,0.00,,,0.19,782.000000,,2013-05-24 02:11:00,
2013-05-23 16:21:00,85.0,70.0,29.99,ENE,72,16.0,29.0,61,0.00,,,0.19,782.000000,,2013-05-24 02:21:00,
2013-05-23 16:32:00,85.0,70.0,29.99,ENE,72,16.0,29.0,61,0.00,,,0.19,782.000000,,2013-05-24 02:32:00,
2013-05-23 16:42:00,85.0,70.0,29.99,ENE,72,16.0,29.0,61,0.00,,,0.19,782.000000,,2013-05-24 02:42:00,
2013-05-23 16:52:00,85.0,70.0,29.99,ENE,72,16.0,29.0,61,0.00,,,0.19,782.000000,,2013-05-24 02:52:00,
2013-05-23 17:11:00,80.0,68.0,29.99,ENE,73,16.0,29.0,66,0.00,,,0.19,275.000000,,2013-05-24 03:11:00,
2013-05-23 17:21:00,80.0,68.0,29.99,ENE,73,16.0,29.0,66,0.00,,,0.19,275.000000,,2013-05-24 03:21:00,
2013-05-23 17:33:00,80.0,68.0,29.99,ENE,73,16.0,29.0,66,0.00,,,0.19,275.000000,,2013-05-24 03:33:00,
2013-05-23 17:42:00,80.0,68.0,29.99,ENE,73,16.0,29.0,66,0.00,,,0.19,275.000000,,2013-05-24 03:42:00,
2013-05-23 17:52:00,80.0,68.0,29.99,ENE,73,16.0,29.0,66,0.00,,,0.19,275.000000,,2013-05-24 03:52:00,
2013-05-23 18:12:00,78.0,67.0,30.00,ENE,71,16.0,29.0,69,0.00,,,0.19,88.000000,,2013-05-24 04:12:00,
2013-05-23 18:22:00,78.0,67.0,30.00,ENE,71,16.0,29.0,69,0.00,,,0.19,88.000000,,2013-05-24 04:22:00,
2013-05-23 18:33:00,78.0,67.0,30.00,ENE,71,16.0,29.0,69,0.00,,,0.19,88.000000,,2013-05-24 04:33:00,
2013-05-23 18:42:00,78.0,67.0,30.00,ENE,71,16.0,29.0,69,0.00,,,0.19,88.000000,,2013-05-24 04:42:00,
2013-05-23 18:52:00,78.0,67.0,30.00,ENE,71,16.0,29.0,69,0.00,,,0.19,88.000000,,2013-05-24 04:52:00,
2013-05-23 19:12:00,78.0,66.0,30.01,ENE,61,13.0,23.0,67,0.00,,,0.19,41.000000,,2013-05-24 05:12:00,
2013-05-23 19:22:00,78.0,66.0,30.01,ENE,61,13.0,23.0,67,0.00,,,0.19,41.000000,,2013-05-24 05:22:00,
2013-05-23 19:32:00,78.0,66.0,30.01,ENE,61,13.0,23.0,67,0.00,,,0.19,41.000000,,2013-05-24 05:32:00,
2013-05-23 19:42:00,78.0,66.0,30.01,ENE,61,13.0,23.0,67,0.00,,,0.19,41.000000,,2013-05-24 05:42:00,
2013-05-23 19:52:00,78.0,66.0,30.01,ENE,61,13.0,23.0,67,0.00,,,0.19,41.000000,,2013-05-24 05:52:00,
2013-05-23 20:12:00,78.0,68.0,30.03,ENE,65,11.0,20.0,72,0.00,,,0.19,1.000000,,2013-05-24 06:12:00,
2013-05-23 20:21:00,78.0,68.0,30.03,ENE,65,11.0,20.0,72,0.00,,,0.19,1.000000,,2013-05-24 06:21:00,
2013-05-23 20:32:00,78.0,68.0,30.03,ENE,65,11.0,20.0,72,0.00,,,0.19,1.000000,,2013-05-24 06:32:00,
2013-05-23 20:41:00,78.0,68.0,30.03,ENE,65,11.0,20.0,72,0.00,,,0.19,1.000000,,2013-05-24 06:41:00,
2013-05-23 20:52:00,78.0,68.0,30.03,ENE,65,11.0,20.0,72,0.00,,,0.19,1.000000,,2013-05-24 06:52:00,
2013-05-23 21:11:00,76.0,67.0,30.05,ENE,64,15.0,26.0,73,0.00,,,0.01,0.000000,,2013-05-24 07:11:00,
2013-05-23 21:22:00,76.0,67.0,30.05,ENE,64,15.0,26.0,73,0.00,,,0.01,0.000000,,2013-05-24 07:22:00,
2013-05-23 21:31:00,76.0,67.0,30.05,ENE,64,15.0,26.0,73,0.00,,,0.01,0.000000,,2013-05-24 07:31:00,
2013-05-23 21:41:00,76.0,67.0,30.05,ENE,64,15.0,26.0,73,0.00,,,0.01,0.000000,,2013-05-24 07:41:00,
2013-05-23 21:52:00,76.0,67.0,30.05,ENE,64,15.0,26.0,73,0.00,,,0.01,0.000000,,2013-05-24 07:52:00,
2013-05-23 22:11:00,76.0,66.0,30.06,NE,54,12.0,23.0,71,0.00,,,0.01,0.000000,,2013-05-24 08:11:00,
2013-05-23 22:22:00,76.0,66.0,30.06,NE,54,12.0,23.0,71,0.00,,,0.01,0.000000,,2013-05-24 08:22:00,
2013-05-23 22:32:00,76.0,66.0,30.06,NE,54,12.0,23.0,71,0.00,,,0.01,0.000000,,2013-05-24 08:32:00,
2013-05-23 22:41:00,76.0,66.0,30.06,NE,54,12.0,23.0,71,0.00,,,0.01,0.000000,,2013-05-24 08:41:00,
2013-05-23 22:51:00,76.0,66.0,30.06,NE,54,12.0,23.0,71,0.00,,,0.01,0.000000,,2013-05-24 08:51:00,
2013-05-23 23:11:00,77.0,68.0,30.07,ENE,67,12.0,29.0,74,0.00,,,0.00,0.000000,,2013-05-24 09:11:00,
2013-05-23 23:21:00,77.0,68.0,30.07,ENE,67,12.0,29.0,74,0.00,,,0.00,0.000000,,2013-05-24 09:21:00,
2013-05-23 23:32:00,77.0,68.0,30.07,ENE,67,12.0,29.0,74,0.00,,,0.00,0.000000,,2013-05-24 09:32:00,
2013-05-23 23:42:00,77.0,68.0,30.07,ENE,67,12.0,29.0,74,0.00,,,0.00,0.000000,,2013-05-24 09:42:00,
2013-05-23 23:52:00,77.0,68.0,30.07,ENE,67,12.0,29.0,74,0.00,,,0.00,0.000000,,2013-05-24 09:52:00,